Hourly Data Report for October 19, 2015

All times are specified in Local Standard Time (LST). Add 1 hour to adjust for Daylight Saving Time where and when it is observed.

MONCTON INTL A
NEW BRUNSWICK

46°06'44.000" N
64°40'43.000" W
70.70 m
8103201
71705
YQM

Download Data

Hourly Data (October 2015)
Hourly Data Report for October 19, 2015
Temp Definition
°C
Dew Point Temp Definition
°C
Rel Hum Definition
%
Wind Dir Definition
10's deg

Wind Spd Definition
km/h
Visibility Definition
km
Stn Press Definition
kPa
Hmdx Definition


Wind Chill Definition


Weather Definition


TIME
00:00 Legend Double Dagger -1.1 -3.6 83 28 16 24.1 100.87   -6 Snow Showers
01:00 Legend Double Dagger -1.4 -4.4 80 29 19 24.1 100.91   -7 LegendNANA
02:00 Legend Double Dagger -1.8 -4.8 80 29 18 24.1 100.97   -7 Clear
03:00 Legend Double Dagger -2.0 -5.5 77 30 21 24.1 101.01   -8 LegendNANA
04:00 Legend Double Dagger -2.7 -6.5 75 30 16 24.1 101.07   -8 LegendNANA
05:00 Legend Double Dagger -3.0 -7.0 74 30 18 24.1 101.15   -9 Mainly Clear
06:00 Legend Double Dagger -3.2 -7.0 75 29 18 24.1 101.21   -9 LegendNANA
07:00 Legend Double Dagger -3.2 -7.0 75 28 15 24.1 101.26   -8 LegendNANA
08:00 Legend Double Dagger -2.0 -7.1 68 30 21 24.1 101.31   -8 Mainly Clear
09:00 Legend Double Dagger -0.1 -6.7 61 32 23 24.1 101.34   -6 LegendNANA
10:00 Legend Double Dagger 1.2 -7.4 53 31 26 24.1 101.36     LegendNANA
11:00 Legend Double Dagger 2.5 -6.6 51 33 16 24.1 101.37     Mainly Clear
12:00 Legend Double Dagger 2.9 -6.8 49 28 16 24.1 101.37     LegendNANA
13:00 Legend Double Dagger 2.8 -7.4 47 25 7 24.1 101.31     LegendNANA
14:00 Legend Double Dagger 4.2 -7.0 44 33 20 24.1 101.27     Mainly Clear
15:00 Legend Double Dagger 3.9 -7.9 42 30 15 24.1 101.25     LegendNANA
16:00 Legend Double Dagger 3.1 -8.0 44 28 18 24.1 101.23     LegendNANA
17:00 Legend Double Dagger 2.5 -7.4 48 26 11 24.1 101.19     Mainly Clear
18:00 Legend Double Dagger 0.6 -7.0 57 21 9 24.1 101.18     LegendNANA
19:00 Legend Double Dagger -0.5 -6.7 63 20 10 24.1 101.20   -4 LegendNANA
20:00 Legend Double Dagger -1.7 -6.5 70 19 9 24.1 101.20   -5 Mainly Clear
21:00 Legend Double Dagger -1.0 -6.0 69 21 13 24.1 101.19   -5 LegendNANA
22:00 Legend Double Dagger 0.1 -5.5 66 21 11 24.1 101.12     LegendNANA
23:00 Legend Double Dagger 0.6 -5.4 64 20 13 24.1 101.08     Mostly Cloudy

Notes on Data Quality.

Legend

  • E = Estimated
  • M = Missing
  • NA = Not Available
  • ‡ = Partner data that is not subject to review by the National Climate Archives
Date modified: